sat.trackr.live / text

‹ back to catalog

STARLINK-37554

NORAD 69663 · 2026-143Q

PAYLOAD ACTIVE UNKNOWN

§ Identity

Operator
Country
US
Launch date
2026-06-21
Launch site
AFWTR
Launch vehicle
Mass (kg)
RCS (m²)

Purposes: comms

External: N2YO · Heavens-Above · Gunter

§ Orbital elements

Epoch: 2026-09-19T20:54:06.167808Z

Period
93.91 min
Inclination
97.2843°
Eccentricity
0.0000591
Mean motion
15.33455062 rev/d
Perigee alt
465.1 km
Apogee alt
465.9 km
Semi-major
6,843.7 km
B*
3.4181e-4
RAAN
306.0324°
Arg perigee
124.7618°
Mean anomaly
235.3680°
Rev number
1,505

§ Raw data

STARLINK-375541 69663U 26143Q   26262.87090472  .00010979  00000+0  34181-3 0  99962 69663  97.2843 306.0324 0000591 124.7618 235.3680 15.33455062 15059

JSON: /api/v1/satellites/69663 · /tle

For live sub-satellite position, see the globe view (requires WebGL).

§ Visibility from observer

Set your observer location to see the next 7 days of passes ≥ 10°. The values pass through the URL so the page stays shareable.

No JS? Fill the form by hand. The geolocation button needs JavaScript.